Location: Mentone
(34.5413°N, 85.5351°W)
Time: 12:15:47
(UTC-05:00)

ADEOS Rocket - Visible Passes

Search period start: 20 June 2018 00:00
Search period end: 30 June 2018 00:00
Orbit: 858 x 1307 km, 98.8° (Epoch: 19 June)

Date Brightness Start Highest point End Pass type
(mag) Time Alt. Az. Time Alt. Az. Time Alt. Az.
20 Jun 4.7 01:24:46 10° NNW 01:29:08 21° WNW 01:30:04 21° W visible
20 Jun 4.7 22:50:25 10° NE 22:53:30 19° E 22:53:30 19° E visible
21 Jun 3.5 00:34:36 10° N 00:40:26 54° WNW 00:40:28 54° WNW visible
21 Jun 3.3 23:45:30 10° NNE 23:50:52 59° ENE 23:50:52 59° ENE visible
22 Jun 4.9 01:32:36 10° NNW 01:36:36 19° WNW 01:37:50 18° W visible
22 Jun 4.5 22:57:29 10° NE 23:01:16 23° E 23:01:16 23° E visible
23 Jun 3.7 00:42:12 10° N 00:47:58 46° WNW 00:48:14 46° W visible
23 Jun 3.1 23:52:56 10° NNE 23:58:38 70° ENE 23:58:38 70° ENE visible
24 Jun 5.1 01:40:30 10° NNW 01:44:04 16° WNW 01:45:35 15° W visible
24 Jun 4.3 23:04:40 10° NE 23:09:02 28° E 23:09:02 28° E visible
25 Jun 3.9 00:49:48 10° N 00:55:29 40° WNW 00:56:00 40° W visible
26 Jun 3.1 00:00:23 10° NNE 00:06:24 82° ENE 00:06:24 82° ENE visible
26 Jun 5.2 01:48:32 10° NW 01:51:31 14° WNW 01:53:21 12° W visible
26 Jun 4.1 23:11:55 10° NE 23:16:48 33° E 23:16:48 33° E visible
27 Jun 4.2 00:57:27 10° N 01:03:01 35° WNW 01:03:46 34° W visible
27 Jun 5.1 22:25:32 10° ENE 22:27:13 12° E 22:27:13 12° E visible
28 Jun 3.1 00:07:53 10° NNE 00:14:10 84° WNW 00:14:10 84° WNW visible
28 Jun 5.4 01:56:48 10° NW 01:58:58 12° WNW 02:01:07 10° W visible
28 Jun 3.9 23:19:12 10° NNE 23:24:34 40° E 23:24:34 40° E visible
29 Jun 4.4 01:05:06 10° N 01:10:31 30° WNW 01:11:31 29° W visible
29 Jun 4.9 22:32:08 10° ENE 22:34:59 16° E 22:34:59 16° E visible
